ORBCOMM FM113 [+] (41185 NORAD) Tracking and Keplerian Element Data

This shows tracking and keplerian element data for the satellite.

Feedback or suggestion? Click here.




ElementValue
Catalog41185
NameORBCOMM FM113 [+]
Epoch Orbit15998
Epoch Day351.85065641
Epoch Year2018
RAAN197.4785
Inclination47
Eccentricity0.000199
Argument of Perigee12.9359
Mean Anonmoly347.1575
Mean Motion14.54748656
Decay Rate-1.18E-06
L11 41185U 15081G 18351.85065641 -.00000118 00000-0 11108-4 0 9993
L22 41185 47.0000 197.4785 0001990 12.9359 347.1575 14.54748656159985

Live tracking and technical data element details for ORBCOMM FM113 [+] (NORAD 41185). ORBCOMM FM113 [+] can be tracked NOW for your location showing map with azimuth and elevation plus other details from your city location.

Track the satellite on the map from your city or location and see movement details for azimuth, elevation, latitude, longitude, range, height, and movement on the map or in text.







IsCatalogInMostPopularTable: catalog: 41185, numindb: 128
Update: records affected: 1



GetName: 41185 ORBCOMM FM113 [+]

Hit Count: updated at: Tue, 18 Dec 2018 21:49:55 GMT